Location: Espelette
(43.3402°N, 1.4474°W)
Time: 23:39:43
(UTC+00:00)

Cosmos 1825 Rocket - Pass Details

Date: 19 May 2025
Orbit: 597 x 625 km, 82.5° (Epoch: 18 June)

Event Time Altitude Azimuth Distance (km) Brightness Sun altitude
Rises 20:36:40 0° 346° (NNW) 2,861 8.0 -11.1°
Reaches altitude 10° 20:38:56 10° 342° (NNW) 1,950 7.1 -11.4°
Maximum altitude 20:43:06 51° 266° (W) 756 4.3 -11.9°
Drops below altitude 10° 20:47:14 10° 191° (S) 1,929 5.8 -12.5°
Enters shadow 20:48:25 - 188° (S) 2,402 6.2 -12.6°
